Date String (YYYY-MM-DD hh:mm:ss) UTC,Instrument flags,Ambient pressure (hPa),Sample flow (lpm),Bypass flow (lpm),Sample temperature (°C),Ambient temperature (°C),ASC tube jacket temperature (°C),LED temperature (°C),Box temperature (°C),Sample RH (%),Span deviation,Mass concentration (μg/m³),Mass concentration (μg/m³),Mass concentration (μg/m³)
DateTimeUTC,F1_M11,P_M11,Q1_M11,Q2_M11,T1_M11,T2_M11,T3_M11,T4_M11,T5_M11,U1_M11,ZSPAN_M11,X2_M11,X0_M11,X1_M11
2022-11-07 10:00:00,,0825.9,5.01,0.00,22.3,21.9,00.0,31.0,24.3,12.3,0000.0,0003.14,0009.27,0002.04
2022-11-07 10:01:00,,0825.8,5.00,0.00,22.4,22.2,00.0,31.0,24.5,12.2,0000.0,0003.12,0008.92,0002.02
2022-11-07 10:02:00,,0825.9,5.00,0.00,22.4,22.0,00.0,31.0,24.4,12.2,0000.0,0003.09,0009.24,0002.01
2022-11-07 10:03:00,,0825.9,4.99,0.00,22.4,21.8,00.0,31.1,24.4,12.2,0000.0,0003.13,0009.03,0002.00
2022-11-07 10:04:00,,0825.8,5.00,0.00,22.4,21.6,00.0,31.1,24.4,12.1,0000.0,0003.13,0008.75,0001.99
2022-11-07 10:05:00,,0825.8,5.00,0.00,22.4,21.4,00.0,31.1,24.3,12.2,0000.0,0003.14,0007.62,0001.97
2022-11-07 10:06:00,,0825.9,5.00,0.00,22.4,21.3,00.0,31.1,24.3,12.3,0000.0,0003.13,0007.33,0001.97
2022-11-07 10:07:00,,0825.9,4.99,0.00,22.4,21.2,00.0,31.1,24.3,12.4,0000.0,0003.10,0007.26,0001.97
2022-11-07 10:08:00,,0825.9,5.01,0.00,22.4,21.2,00.0,31.1,24.3,12.2,0000.0,0002.98,0007.59,0001.94
2022-11-07 10:09:00,,0825.9,5.00,0.00,22.4,21.1,00.0,31.1,24.3,12.2,0000.0,0002.91,0007.67,0001.95
2022-11-07 10:10:00,,0825.9,5.00,0.00,22.4,21.1,00.0,31.1,24.3,12.3,0000.0,0002.92,0007.65,0001.95
2022-11-07 10:11:00,,0825.9,5.00,0.00,22.4,21.1,00.0,31.1,24.3,12.4,0000.0,0002.95,0007.68,0001.96
2022-11-07 10:12:00,,0825.9,5.01,0.00,22.4,21.0,00.0,31.1,24.3,12.4,0000.0,0002.91,0007.62,0001.96
2022-11-07 10:13:00,,0825.9,5.00,0.00,22.4,21.0,00.0,31.1,24.2,12.4,0000.0,0002.94,0007.32,0001.97
2022-11-07 10:14:00,,0826.0,5.01,0.00,22.4,21.0,00.0,31.1,24.2,12.4,0000.0,0002.93,0007.44,0001.98
2022-11-07 10:15:00,,0825.9,5.00,0.00,22.4,21.0,00.0,31.1,24.2,12.4,0000.0,0002.94,0007.81,0002.00
2022-11-07 10:16:00,,0825.9,4.99,0.00,22.3,20.9,00.0,31.1,24.2,12.4,0000.0,0002.91,0007.77,0002.00
2022-11-07 10:17:00,,0825.8,4.99,0.00,22.3,20.9,00.0,31.1,24.2,12.4,0000.0,0002.90,0007.70,0002.01
2022-11-07 10:18:00,,0825.9,5.00,0.00,22.3,20.9,00.0,31.1,24.2,12.3,0000.0,0002.90,0007.70,0002.01
2022-11-07 10:19:00,,0825.9,5.00,0.00,22.3,20.9,00.0,31.1,24.2,12.3,0000.0,0002.94,0007.44,0002.01
2022-11-07 10:20:00,,0825.7,5.01,0.00,22.3,20.9,00.0,31.1,24.2,12.3,0000.0,0002.95,0006.77,0002.00
2022-11-07 10:21:00,,0825.8,5.01,0.00,22.3,20.9,00.0,31.1,24.2,12.4,0000.0,0003.06,0007.22,0002.00
2022-11-07 10:22:00,,0826.0,5.00,0.00,22.3,20.8,00.0,31.1,24.1,12.3,0000.0,0003.08,0007.47,0001.99
2022-11-07 10:23:00,,0825.7,4.99,0.00,22.3,20.8,00.0,31.1,24.1,12.3,0000.0,0003.05,0007.95,0001.99
2022-11-07 10:24:00,,0825.9,4.99,0.00,22.2,20.7,00.0,31.1,24.1,12.5,0000.0,0003.11,0008.35,0002.01
2022-11-07 10:25:00,,0825.9,5.00,0.00,22.2,20.7,00.0,31.1,24.1,12.5,0000.0,0003.06,0008.05,0002.00
2022-11-07 10:26:00,,0825.8,5.00,0.00,22.2,20.7,00.0,31.1,24.1,12.6,0000.0,0003.03,0007.63,0001.99
2022-11-07 10:27:00,,0825.8,5.01,0.00,22.2,21.3,00.0,31.0,24.2,12.6,0000.0,0003.07,0008.17,0001.99
2022-11-07 10:28:00,,0825.8,4.99,0.00,22.3,22.1,00.0,31.0,24.4,12.5,0000.0,0003.07,0008.51,0001.97
2022-11-07 10:29:00,,0825.8,5.00,0.00,22.4,22.1,00.0,31.1,24.5,12.4,0000.0,0003.07,0008.53,0001.97
2022-11-07 10:30:00,,0825.7,4.99,0.00,22.4,21.9,00.0,31.1,24.4,12.4,0000.0,0003.09,0008.66,0001.97
2022-11-07 10:31:00,,0825.7,5.01,0.00,22.4,21.6,00.0,31.1,24.4,12.4,0000.0,0003.09,0008.61,0002.00
2022-11-07 10:32:00,,0825.7,5.02,0.00,22.4,21.4,00.0,31.1,24.3,12.3,0000.0,0003.04,0008.50,0002.00
2022-11-07 10:33:00,,0825.7,4.98,0.00,22.4,21.2,00.0,31.1,24.3,12.3,0000.0,0003.08,0008.58,0002.03
2022-11-07 10:34:00,,0825.7,5.00,0.00,22.4,21.1,00.0,31.1,24.3,12.3,0000.0,0003.12,0008.23,0002.06
2022-11-07 10:35:00,,0825.7,5.01,0.00,22.4,21.0,00.0,31.1,24.2,12.3,0000.0,0003.12,0007.70,0002.07
2022-11-07 10:36:00,,0825.7,5.00,0.00,22.3,21.0,00.0,31.1,24.2,12.4,0000.0,0003.13,0007.75,0002.08
2022-11-07 10:37:00,,0825.7,5.00,0.00,22.3,20.9,00.0,31.1,24.2,12.4,0000.0,0003.14,0007.88,0002.10
2022-11-07 10:38:00,,0825.7,4.99,0.00,22.3,20.9,00.0,31.1,24.1,12.5,0000.0,0003.13,0007.25,0002.12
2022-11-07 10:39:00,,0825.7,5.00,0.00,22.3,20.8,00.0,31.1,24.1,12.5,0000.0,0003.12,0006.75,0002.15
2022-11-07 10:40:00,,0825.7,5.01,0.00,22.3,20.8,00.0,31.1,24.1,12.5,0000.0,0003.12,0007.19,0002.18
2022-11-07 10:41:00,,0825.7,5.00,0.00,22.3,20.8,00.0,31.1,24.1,12.5,0000.0,0003.13,0008.58,0002.20
2022-11-07 10:42:00,,0825.7,4.99,0.00,22.2,20.8,00.0,31.1,24.1,12.6,0000.0,0003.15,0008.84,0002.20
2022-11-07 10:43:00,,0825.7,5.01,0.00,22.2,20.8,00.0,31.1,24.1,12.6,0000.0,0003.16,0009.93,0002.21
2022-11-07 10:44:00,,0825.7,5.01,0.00,22.2,20.7,00.0,31.1,24.1,12.6,0000.0,0003.12,0010.20,0002.21
2022-11-07 10:45:00,,0825.9,4.99,0.00,22.2,20.8,00.0,31.1,24.1,12.7,0000.0,0003.12,0010.16,0002.21
2022-11-07 10:46:00,,0825.7,5.00,0.00,22.2,20.7,00.0,31.0,24.1,12.7,0000.0,0003.10,0010.11,0002.21
2022-11-07 10:47:00,,0825.7,4.99,0.00,22.2,20.7,00.0,31.0,24.0,12.6,0000.0,0003.14,0010.07,0002.21
2022-11-07 10:48:00,,0825.7,5.00,0.00,22.2,20.7,00.0,31.0,24.0,12.6,0000.0,0003.14,0010.15,0002.22
2022-11-07 10:49:00,,0825.6,5.00,0.00,22.2,20.7,00.0,31.0,24.0,12.6,0000.0,0003.18,0010.47,0002.23
2022-11-07 10:50:00,,0825.6,5.00,0.00,22.2,20.7,00.0,31.0,24.0,12.6,0000.0,0003.18,0010.65,0002.25
2022-11-07 10:51:00,,0825.7,5.01,0.00,22.2,21.3,00.0,31.0,24.2,12.6,0000.0,0003.21,0010.50,0002.25
2022-11-07 10:52:00,,0825.7,5.00,0.00,22.3,22.1,00.0,31.0,24.4,12.7,0000.0,0003.20,0009.19,0002.26
2022-11-07 10:53:00,,0825.7,4.99,0.00,22.4,22.2,00.0,31.0,24.5,12.7,0000.0,0003.19,0008.91,0002.28
2022-11-07 10:54:00,,0825.7,4.99,0.00,22.4,21.9,00.0,31.1,24.4,12.6,0000.0,0003.18,0008.48,0002.30
2022-11-07 10:55:00,,0825.7,5.01,0.00,22.4,21.6,00.0,31.1,24.4,12.7,0000.0,0003.22,0007.92,0002.32
2022-11-07 10:56:00,,0825.7,5.01,0.00,22.4,21.5,00.0,31.1,24.4,12.7,0000.0,0003.26,0008.63,0002.35
2022-11-07 10:57:00,,0825.7,4.99,0.00,22.4,21.2,00.0,31.1,24.3,12.6,0000.0,0003.28,0008.77,0002.38
2022-11-07 10:58:00,,0825.7,4.99,0.00,22.4,20.9,00.0,31.1,24.2,12.5,0000.0,0003.27,0008.77,0002.41
2022-11-07 10:59:00,,0825.7,5.01,0.00,22.3,20.7,00.0,31.1,24.1,12.5,0000.0,0003.26,0008.93,0002.42
